Total_Precipitation_Accumulation
0.01 0.02 0.03 0.04 0.05 0.05 0.03 0.03 0.05 0.05 0.06 0.05 0.03 0.02 0.01 0.01 0.01 0.01 0.01 0.01 0.01 0.01 0.01 0.02 0.03 0.03 0.04 0.04 0.04 0.03 0.04 0.05 0.05 0.05 0.05 0.05 0.07 0.10 0.11 0.12 0.13 0.19 0.26 0.29
0.00 0.02 0.03 0.04 0.07 0.06 0.03 0.02 0.01 0.02 0.02 0.03 0.04 0.03 0.03 0.03 0.02 0.02 0.02 0.03 0.03 0.03 0.03 0.03 0.03 0.04 0.04 0.04 0.05 0.06 0.08 0.10 0.09 0.10 0.10 0.10 0.11 0.11 0.12 0.14 0.18 0.21 0.23 0.26
0.00 0.02 0.02 0.06 0.06 0.04 0.03 0.03 0.03 0.03 0.04 0.05 0.06 0.07 0.09 0.12 0.12 0.10 0.09 0.09 0.08 0.07 0.06 0.05 0.04 0.03 0.04 0.04 0.05 0.05 0.07 0.12 0.13 0.14 0.13 0.11 0.11 0.12 0.15 0.19 0.23 0.26 0.27 0.29
0.01 0.02 0.05 0.06 0.04 0.04 0.04 0.03 0.05 0.10 0.13 0.15 0.18 0.20 0.23 0.28 0.26 0.18 0.12 0.08 0.05 0.03 0.02 0.02 0.02 0.02 0.02 0.03 0.03 0.04 0.06 0.12 0.17 0.19 0.18 0.16 0.17 0.20 0.23 0.27 0.29 0.32 0.33 0.36
0.03 0.03 0.04 0.04 0.05 0.06 0.07 0.09 0.13 0.21 0.28 0.31 0.32 0.31 0.26 0.20 0.15 0.10 0.06 0.03 0.02 0.01 0.01 0.01 0.02 0.02 0.04 0.04 0.05 0.06 0.09 0.14 0.19 0.25 0.27 0.26 0.27 0.31 0.35 0.38 0.37 0.37 0.39 0.43
0.04 0.05 0.07 0.07 0.11 0.14 0.15 0.23 0.29 0.33 0.33 0.25 0.19 0.18 0.13 0.08 0.05 0.03 0.02 0.02 0.02 0.02 0.02 0.03 0.04 0.05 0.06 0.08 0.10 0.13 0.14 0.18 0.24 0.32 0.37 0.36 0.37 0.41 0.44 0.47 0.46 0.43 0.42 0.45
0.06 0.08 0.09 0.12 0.16 0.21 0.35 0.41 0.38 0.34 0.27 0.21 0.18 0.16 0.13 0.08 0.05 0.04 0.02 0.02 0.02 0.03 0.04 0.07 0.09 0.13 0.17 0.20 0.22 0.22 0.24 0.26 0.31 0.37 0.44 0.43 0.46 0.48 0.51 0.52 0.53 0.53 0.51 0.51
0.16 0.23 0.23 0.19 0.22 0.33 0.40 0.34 0.29 0.25 0.20 0.16 0.13 0.11 0.09 0.08 0.07 0.05 0.04 0.04 0.04 0.05 0.05 0.08 0.13 0.20 0.26 0.28 0.28 0.30 0.34 0.35 0.38 0.44 0.45 0.44 0.55 0.62 0.67 0.69 0.66 0.64 0.69 0.65
0.27 0.28 0.25 0.23 0.23 0.26 0.28 0.26 0.22 0.19 0.16 0.13 0.10 0.10 0.08 0.07 0.07 0.06 0.05 0.05 0.05 0.06 0.07 0.08 0.13 0.19 0.25 0.27 0.29 0.31 0.34 0.36 0.41 0.50 0.56 0.60 0.66 0.70 0.80 0.85 0.82 0.77 0.77 0.81
0.21 0.24 0.23 0.22 0.22 0.19 0.17 0.14 0.10 0.09 0.10 0.11 0.11 0.13 0.13 0.08 0.06 0.05 0.04 0.04 0.05 0.07 0.10 0.12 0.14 0.17 0.21 0.27 0.34 0.38 0.39 0.41 0.46 0.52 0.58 0.69 0.79 0.79 0.81 0.85 0.88 0.87 0.84 0.80
0.19 0.25 0.29 0.29 0.24 0.18 0.13 0.11 0.09 0.07 0.08 0.08 0.08 0.07 0.08 0.09 0.07 0.05 0.04 0.04 0.07 0.11 0.14 0.14 0.14 0.15 0.17 0.24 0.36 0.43 0.44 0.43 0.47 0.52 0.59 0.71 0.84 0.87 0.78 0.79 0.82 0.79 0.74 0.71
0.14 0.19 0.26 0.27 0.21 0.12 0.09 0.10 0.12 0.10 0.08 0.08 0.05 0.02 0.02 0.02 0.03 0.03 0.04 0.07 0.12 0.15 0.16 0.16 0.16 0.17 0.19 0.24 0.38 0.48 0.48 0.46 0.48 0.52 0.60 0.70 0.83 0.88 0.73 0.60 0.59 0.59 0.52 0.46
0.12 0.16 0.17 0.17 0.17 0.17 0.14 0.13 0.09 0.05 0.04 0.03 0.02 0.02 0.01 0.01 0.01 0.04 0.08 0.15 0.21 0.24 0.22 0.21 0.23 0.24 0.25 0.31 0.46 0.62 0.59 0.54 0.55 0.57 0.62 0.66 0.75 0.87 0.90 0.73 0.54 0.47 0.38 0.30
0.13 0.14 0.14 0.13 0.12 0.12 0.08 0.06 0.04 0.04 0.03 0.02 0.02 0.02 0.02 0.02 0.03 0.08 0.15 0.24 0.30 0.31 0.30 0.31 0.31 0.29 0.30 0.34 0.43 0.68 0.78 0.67 0.58 0.57 0.63 0.68 0.74 0.81 0.90 0.95 0.85 0.68 0.46 0.27
0.14 0.10 0.10 0.09 0.08 0.08 0.06 0.05 0.05 0.05 0.03 0.02 0.01 0.01 0.01 0.03 0.07 0.12 0.20 0.32 0.41 0.40 0.37 0.36 0.37 0.34 0.33 0.35 0.38 0.49 0.69 0.73 0.64 0.59 0.62 0.69 0.72 0.77 0.85 0.91 0.98 0.94 0.72 0.44
0.17 0.13 0.10 0.09 0.08 0.06 0.05 0.04 0.04 0.03 0.02 0.02 0.02 0.02 0.03 0.05 0.10 0.16 0.26 0.41 0.60 0.62 0.53 0.49 0.45 0.39 0.37 0.39 0.41 0.45 0.53 0.50 0.49 0.56 0.61 0.67 0.73 0.76 0.80 0.89 0.95 0.97 0.86 0.63
0.16 0.12 0.10 0.08 0.07 0.05 0.04 0.04 0.03 0.03 0.02 0.02 0.03 0.04 0.07 0.12 0.20 0.28 0.36 0.46 0.57 0.62 0.60 0.59 0.53 0.43 0.40 0.42 0.45 0.45 0.50 0.44 0.34 0.45 0.58 0.64 0.71 0.76 0.78 0.84 0.90 0.92 0.84 0.54
0.09 0.07 0.06 0.06 0.06 0.06 0.05 0.04 0.03 0.03 0.03 0.05 0.07 0.09 0.14 0.24 0.42 0.54 0.59 0.63 0.64 0.56 0.53 0.55 0.46 0.37 0.34 0.34 0.37 0.41 0.52 0.51 0.38 0.41 0.54 0.60 0.63 0.76 0.80 0.81 0.84 0.86 0.76 0.51
0.08 0.07 0.05 0.04 0.04 0.04 0.04 0.03 0.03 0.04 0.05 0.09 0.14 0.18 0.22 0.32 0.48 0.62 0.68 0.78 0.85 0.78 0.62 0.52 0.40 0.32 0.29 0.25 0.24 0.33 0.45 0.50 0.41 0.39 0.49 0.48 0.55 0.73 0.77 0.77 0.80 0.80 0.66 0.55
0.05 0.05 0.04 0.04 0.03 0.02 0.02 0.02 0.04 0.06 0.08 0.14 0.22 0.28 0.33 0.38 0.49 0.61 0.64 0.71 0.85 0.87 0.73 0.55 0.37 0.29 0.24 0.19 0.19 0.27 0.39 0.47 0.39 0.32 0.37 0.46 0.58 0.69 0.74 0.72 0.73 0.75 0.65 0.55
0.04 0.03 0.02 0.02 0.02 0.02 0.02 0.03 0.07 0.11 0.13 0.19 0.28 0.37 0.45 0.44 0.46 0.55 0.69 0.76 0.71 0.75 0.73 0.63 0.44 0.29 0.20 0.19 0.20 0.28 0.39 0.46 0.38 0.29 0.31 0.39 0.53 0.64 0.71 0.71 0.70 0.69 0.60 0.53
0.03 0.03 0.03 0.03 0.03 0.03 0.03 0.04 0.07 0.10 0.15 0.25 0.33 0.40 0.49 0.48 0.48 0.47 0.51 0.64 0.68 0.77 0.73 0.66 0.54 0.38 0.25 0.19 0.20 0.26 0.35 0.41 0.37 0.28 0.25 0.33 0.46 0.56 0.63 0.66 0.68 0.66 0.60 0.56
0.01 0.01 0.01 0.01 0.01 0.01 0.01 0.03 0.04 0.07 0.19 0.33 0.39 0.45 0.51 0.47 0.51 0.61 0.56 0.47 0.53 0.66 0.60 0.53 0.52 0.42 0.29 0.22 0.21 0.26 0.37 0.44 0.42 0.31 0.27 0.33 0.40 0.44 0.51 0.54 0.56 0.59 0.60 0.56
0.01 0.01 0.01 0.00 0.01 0.01 0.02 0.03 0.03 0.06 0.17 0.29 0.29 0.36 0.42 0.42 0.43 0.47 0.49 0.48 0.51 0.58 0.50 0.45 0.43 0.40 0.37 0.32 0.31 0.33 0.38 0.42 0.40 0.30 0.27 0.30 0.33 0.35 0.42 0.51 0.57 0.62 0.59 0.52
0.01 0.01 0.01 0.01 0.02 0.04 0.05 0.04 0.04 0.07 0.21 0.33 0.29 0.29 0.30 0.34 0.44 0.47 0.45 0.41 0.46 0.49 0.46 0.44 0.40 0.37 0.35 0.41 0.46 0.44 0.40 0.38 0.35 0.28 0.26 0.26 0.30 0.33 0.41 0.52 0.60 0.61 0.51 0.48
0.01 0.01 0.01 0.02 0.03 0.05 0.05 0.06 0.06 0.09 0.24 0.46 0.42 0.35 0.32 0.30 0.34 0.40 0.45 0.43 0.43 0.48 0.45 0.40 0.36 0.36 0.36 0.44 0.50 0.46 0.40 0.37 0.35 0.32 0.30 0.30 0.34 0.40 0.47 0.55 0.56 0.46 0.40 0.39
0.02 0.02 0.02 0.02 0.03 0.03 0.05 0.07 0.08 0.10 0.24 0.50 0.56 0.41 0.34 0.32 0.33 0.39 0.45 0.47 0.45 0.44 0.41 0.37 0.33 0.31 0.33 0.37 0.38 0.39 0.38 0.37 0.38 0.37 0.34 0.34 0.36 0.40 0.42 0.45 0.43 0.36 0.34 0.32